Flag for Reunion (French) Weather past 2 weeks in Saint-Denis, Reunion (French)

Now
77 °F

Warm.


Feels Like: 79 °F
Forecast: 74 / 86 °F
Wind: 5 mph from South

Location: Saint-Denis / Gillot

Current Time: Mar 28, 2015 at 11:09:19 PM

Latest Report: Mar 28, 2015 at 10:30 PM


Visibility: N/A

Pressure: 29.98 "Hg

Humidity: 79%

Dew point: 70 °F

Location of Saint-DenisLocation

Historic Weather in Saint-Denis — Graph

°F

Saint-Denis temperature yesterday

Maximum temperature yesterday: 86 °F (at 11:42 AM)
Minimum temperature yesterday: 72 °F (at 5:30 AM)
Average temperature yesterday: 79 °F

Past Weeks' High & Low Weather Summary

 TemperatureHumidityPressure
High88 °F (Mar 21, 10:30 AM)94% (Mar 18, 9:30 PM)30.07 "Hg (Mar 18, 9:30 PM)
Low66 °F (Mar 15, 5:00 AM)48% (Mar 14, 10:34 AM)29.89 "Hg (Mar 28, 2:30 PM)
Average79 °F72%30.00 "Hg
* Reported Mar 13 10:00 PM — Mar 28 10:00 PM, Saint-Denis, Weather by CustomWeather, © 2015

Note: Actual official high and low records may vary slightly from our data, if they occured in-between our weather recording intervals... More about our weather records

Advertising

Saint-Denis weather history for previous 24 hours

 ConditionsComfort  
Time TempWeatherWind HumidityBarometerVisibility
10:00 PM
Sat, Mar 28
79 °FWarm.7 mph74%29.98 "HgN/A
9:30 PM79 °FClear.9 mph74%29.98 "HgN/A
9:00 PM79 °FClear.8 mph74%29.98 "HgN/A
8:30 PM79 °FClear.9 mph74%29.98 "HgN/A
8:00 PM79 °FWarm.7 mph74%29.95 "HgN/A
7:30 PM79 °FClear.9 mph79%29.95 "HgN/A
7:00 PM79 °FClear.12 mph84%29.92 "HgN/A
6:30 PM81 °FClear.12 mph79%29.92 "HgN/A
5:30 PM84 °FPassing clouds.16 mph70%29.92 "HgN/A
5:00 PM84 °FPassing clouds.16 mph70%29.89 "HgN/A
4:00 PM86 °FPassing clouds.17 mph70%29.89 "HgN/A
3:30 PM86 °FPassing clouds.18 mph70%29.89 "HgN/A
3:00 PM86 °FPassing clouds.17 mph70%29.89 "HgN/A
2:30 PM86 °FPassing clouds.17 mph70%29.89 "HgN/A
2:00 PM86 °FPassing clouds.18 mph70%29.92 "HgN/A
1:30 PM86 °FPassing clouds.18 mph70%29.92 "HgN/A
1:00 PM86 °FPassing clouds.20 mph70%29.92 "HgN/A
12:30 PM86 °FPassing clouds.20 mph70%29.92 "HgN/A
12:00 PM86 °FPassing clouds.20 mph70%29.95 "HgN/A
11:30 AM86 °FPassing clouds.20 mph66%29.95 "HgN/A
11:00 AM86 °FPassing clouds.18 mph70%29.95 "HgN/A
10:30 AM86 °FPassing clouds.13 mph62%29.95 "HgN/A
10:00 AM86 °FPassing clouds.13 mph62%29.95 "HgN/A
9:30 AM84 °FPassing clouds.12 mph66%29.95 "HgN/A
9:00 AM84 °FPassing clouds.12 mph66%29.95 "HgN/A
8:30 AM82 °FPassing clouds.No wind58%29.95 "HgN/A
8:00 AM81 °FPassing clouds.No wind62%29.95 "HgN/A
7:30 AM75 °FPassing clouds.No wind74%29.95 "HgN/A
7:00 AM72 °FPassing clouds.No wind78%29.95 "HgN/A
6:30 AM72 °FPassing clouds.No wind73%29.95 "HgN/A
6:00 AM70 °FPassing clouds.No wind78%29.92 "HgN/A
5:30 AM70 °FClear.No wind78%29.92 "HgN/A
5:00 AM70 °FClear.No wind78%29.92 "HgN/A
4:30 AM70 °FClear.No wind78%29.92 "HgN/A
4:00 AM70 °FClear.No wind78%29.92 "HgN/A
3:30 AM70 °FClear.No wind78%29.92 "HgN/A
3:00 AM70 °FClear.No wind78%29.92 "HgN/A
2:30 AM70 °FClear.No wind78%29.92 "HgN/A
2:00 AM72 °FClear.No wind73%29.92 "HgN/A
1:30 AM72 °FClear.6 mph78%29.95 "HgN/A
1:00 AM72 °FClear.6 mph78%29.95 "HgN/A
12:30 AM73 °FClear.No wind78%29.98 "HgN/A
12:00 AM72 °FClear.No wind83%29.98 "HgN/A
11:30 PM
Fri, Mar 27
73 °FClear.No wind78%29.98 "HgN/A
11:00 PM73 °FClear.5 mph78%29.98 "HgN/A
Weather by CustomWeather, © 2015

See weather overviewHow to use our weather pages